Location: Barrio de Buenos Aires
(28.4500°N, 16.2667°W)
Time: 18:43:17
(UTC+00:00)

Cosmos-2242 - Pass Details

Date: 24 January 2020
Orbit: 590 x 618 km, 82.5° (Epoch: 27 February)

Event Time Altitude Azimuth Distance (km) Brightness Sun altitude
Rises 19:07:52 0° 1° (N) 2,849 6.3 -7.1°
Reaches altitude 10° 19:10:09 10° 6° (N) 1,939 5.4 -7.5°
Maximum altitude 19:14:19 51° 83° (E) 751 3.1 -8.4°
Drops below altitude 10° 19:18:26 10° 159° (SSE) 1,915 5.5 -9.3°
Sets 19:20:40 0° 164° (SSE) 2,810 6.5 -9.8°
